• In Belarus
  • List of Countries
  • For 7 days
  • Water Temperature
  • Satellite Maps
  • Weather Map
  • Weather Widgets
  • user-avatar
    Login

    Hourly Weather Procwin

    Today, 23 October, Tuesday

    Time Temperature Precipitation Wind Pressure Humidity
    00:00 +6°C° 0 mm 4 mps 746 mmHg 85%
    01:00 +5°C° 0 mm 4 mps 746 mmHg 88%
    02:00 +4°C° 0 mm 4 mps 746 mmHg 89%
    03:00 +4°C° 0 mm 4 mps 745 mmHg 90%
    04:00 +3°C° 0 mm 4 mps 745 mmHg 91%
    05:00 +3°C° 0 mm 4 mps 744 mmHg 89%
    06:00 +3°C° 0 mm 5 mps 744 mmHg 87%
    07:00 +3°C° 0 mm 5 mps 743 mmHg 84%
    08:00 +4°C° 0 mm 6 mps 742 mmHg 77%
    09:00 +5°C° 0 mm 7 mps 741 mmHg 70%
    10:00 +6°C° 0 mm 8 mps 740 mmHg 63%
    11:00 +6°C° 0.4 mm 9 mps 738 mmHg 64%
    12:00 +6°C° 0.4 mm 9 mps 737 mmHg 65%
    13:00 +6°C° 0.4 mm 10 mps 736 mmHg 65%
    14:00 +6°C° 1.1 mm 10 mps 735 mmHg 70%
    15:00 +5°C° 1.1 mm 10 mps 733 mmHg 74%
    16:00 +5°C° 1.1 mm 10 mps 732 mmHg 78%
    17:00 +6°C° 1 mm 10 mps 731 mmHg 79%
    18:00 +6°C° 1 mm 10 mps 730 mmHg 81%
    19:00 +7°C° 1 mm 10 mps 729 mmHg 83%
    20:00 +7°C° 1.7 mm 10 mps 729 mmHg 83%
    21:00 +7°C° 1.7 mm 9 mps 728 mmHg 83%
    22:00 +8°C° 1.7 mm 9 mps 728 mmHg 82%
    23:00 +7°C° 0.3 mm 9 mps 727 mmHg 81%

    Tomorrow, 24 October, Wednesday

    Time Temperature Precipitation Wind Pressure Humidity
    00:00 +6°C° 0.3 mm 9 mps 727 mmHg 80%
    01:00 +6°C° 0.3 mm 9 mps 726 mmHg 78%
    02:00 +5°C° 0.2 mm 9 mps 726 mmHg 75%
    03:00 +5°C° 0.2 mm 9 mps 726 mmHg 73%
    04:00 +3°C° 0.2 mm 10 mps 726 mmHg 70%
    05:00 +3°C° 0.2 mm 10 mps 727 mmHg 71%
    06:00 +3°C° 0.2 mm 10 mps 727 mmHg 72%
    07:00 +3°C° 0.2 mm 10 mps 728 mmHg 74%
    08:00 +3°C° 0.2 mm 10 mps 728 mmHg 66%
    09:00 +3°C° 0.2 mm 10 mps 729 mmHg 58%
    10:00 +4°C° 0.2 mm 11 mps 730 mmHg 50%
    11:00 +4°C° 0 mm 11 mps 730 mmHg 49%
    12:00 +4°C° 0 mm 11 mps 731 mmHg 48%
    13:00 +4°C° 0 mm 11 mps 731 mmHg 47%
    14:00 +5°C° 0 mm 10 mps 731 mmHg 49%
    15:00 +3°C° 0 mm 10 mps 732 mmHg 50%
    16:00 +3°C° 0 mm 9 mps 733 mmHg 52%
    17:00 +3°C° 0 mm 9 mps 733 mmHg 54%
    18:00 +2°C° 0 mm 9 mps 734 mmHg 55%
    19:00 +2°C° 0 mm 9 mps 735 mmHg 57%
    20:00 +2°C° 0 mm 8 mps 735 mmHg 59%
    21:00 +2°C° 0 mm 8 mps 736 mmHg 61%
    22:00 +2°C° 0 mm 7 mps 736 mmHg 64%
    23:00 +2°C° 0 mm 7 mps 737 mmHg 65%

    Day after tomorrow, 25 October, Thursday

    Time Temperature Precipitation Wind Pressure Humidity
    00:00 +2°C° 0 mm 7 mps 737 mmHg 66%
    01:00 +2°C° 0 mm 6 mps 737 mmHg 67%
    02:00 +1°C° 0 mm 6 mps 737 mmHg 70%
    03:00 +1°C° 0 mm 6 mps 737 mmHg 73%
    04:00 +1°C° 0 mm 5 mps 737 mmHg 76%
    05:00 +1°C° 0.1 mm 5 mps 736 mmHg 76%
    06:00 +1°C° 0.1 mm 5 mps 736 mmHg 76%
    07:00 +2°C° 0.1 mm 5 mps 736 mmHg 76%
    08:00 +2°C° 0.8 mm 5 mps 735 mmHg 79%
    09:00 +2°C° 0.8 mm 6 mps 734 mmHg 83%
    10:00 +3°C° 0.8 mm 6 mps 733 mmHg 86%
    11:00 +5°C° 0.7 mm 7 mps 733 mmHg 87%
    12:00 +6°C° 0.7 mm 8 mps 732 mmHg 87%
    13:00 +9°C° 0.7 mm 8 mps 731 mmHg 87%
    14:00 +8°C° 0.3 mm 9 mps 731 mmHg 85%
    15:00 +8°C° 0.3 mm 9 mps 731 mmHg 84%
    16:00 +8°C° 0.3 mm 9 mps 731 mmHg 82%
    17:00 +7°C° 0.2 mm 8 mps 732 mmHg 80%
    18:00 +7°C° 0.2 mm 8 mps 732 mmHg 78%
    19:00 +8°C° 0.2 mm 7 mps 733 mmHg 76%
    20:00 +6°C° 0 mm 7 mps 733 mmHg 77%
    21:00 +5°C° 0 mm 6 mps 733 mmHg 78%
    22:00 +5°C° 0 mm 6 mps 734 mmHg 79%
    23:00 +5°C° 0 mm 5 mps 734 mmHg 80%

    26 October, Friday

    Time Temperature Precipitation Wind Pressure Humidity
    00:00 +5°C° 0 mm 5 mps 734 mmHg 81%
    01:00 +5°C° 0 mm 5 mps 734 mmHg 82%
    02:00 +5°C° 0 mm 5 mps 735 mmHg 83%
    03:00 +3°C° 0 mm 5 mps 735 mmHg 85%
    04:00 +4°C° 0 mm 4 mps 735 mmHg 86%
    05:00 +4°C° 0 mm 4 mps 735 mmHg 87%
    06:00 +4°C° 0 mm 4 mps 735 mmHg 88%
    07:00 +4°C° 0 mm 4 mps 735 mmHg 89%
    08:00 +5°C° 0 mm 4 mps 735 mmHg 83%
    09:00 +6°C° 0 mm 4 mps 735 mmHg 77%
    10:00 +7°C° 0 mm 4 mps 735 mmHg 71%
    11:00 +7°C° 0 mm 4 mps 735 mmHg 73%
    12:00 +8°C° 0 mm 4 mps 734 mmHg 75%
    13:00 +8°C° 0 mm 4 mps 734 mmHg 77%
    14:00 +8°C° 0 mm 4 mps 733 mmHg 78%
    15:00 +10°C° 0 mm 4 mps 733 mmHg 79%
    16:00 +10°C° 0 mm 4 mps 732 mmHg 80%
    17:00 +10°C° 0 mm 4 mps 732 mmHg 80%
    18:00 +8°C° 0 mm 4 mps 732 mmHg 80%
    19:00 +8°C° 0 mm 5 mps 731 mmHg 80%
    20:00 +8°C° 0 mm 5 mps 731 mmHg 80%
    21:00 +8°C° 0 mm 5 mps 731 mmHg 81%
    22:00 +7°C° 0 mm 5 mps 731 mmHg 81%
    23:00 +7°C° 0 mm 5 mps 731 mmHg 80%

    27 October, Saturday

    Time Temperature Precipitation Wind Pressure Humidity
    00:00 +7°C° 0 mm 6 mps 731 mmHg 79%
    01:00 +7°C° 0 mm 6 mps 731 mmHg 78%
    02:00 +5°C° 0 mm 6 mps 731 mmHg 77%
    03:00 +5°C° 0 mm 7 mps 732 mmHg 75%
    04:00 +4°C° 0 mm 7 mps 732 mmHg 74%
    05:00 +4°C° 0 mm 7 mps 732 mmHg 73%
    06:00 +4°C° 0 mm 7 mps 733 mmHg 73%
    07:00 +3°C° 0 mm 7 mps 733 mmHg 73%
    08:00 +4°C° 0 mm 7 mps 733 mmHg 70%
    09:00 +4°C° 0 mm 7 mps 734 mmHg 67%
    10:00 +5°C° 0 mm 7 mps 734 mmHg 64%
    11:00 +5°C° 0 mm 7 mps 734 mmHg 62%
    12:00 +7°C° 0 mm 6 mps 735 mmHg 60%
    13:00 +7°C° 0 mm 6 mps 735 mmHg 58%
    14:00 +7°C° 0 mm 5 mps 735 mmHg 60%
    15:00 +6°C° 0 mm 4 mps 735 mmHg 62%
    16:00 +7°C° 0 mm 3 mps 735 mmHg 64%
    17:00 +7°C° 0 mm 3 mps 736 mmHg 66%
    18:00 +6°C° 0 mm 2 mps 736 mmHg 69%
    19:00 +7°C° 0 mm 1 mps 737 mmHg 72%
    20:00 +6°C° 0 mm 1 mps 737 mmHg 73%
    21:00 +6°C° 0 mm 1 mps 737 mmHg 74%
    22:00 +6°C° 0 mm 1 mps 737 mmHg 75%
    23:00 +6°C° 0 mm 1 mps 738 mmHg 75%

    28 October, Sunday

    Time Temperature Precipitation Wind Pressure Humidity
    00:00 +6°C° 0 mm 1 mps 738 mmHg 75%
    01:00 +6°C° 0 mm 1 mps 738 mmHg 75%
    02:00 +6°C° 0.1 mm 1 mps 738 mmHg 76%
    03:00 +5°C° 0.1 mm 2 mps 738 mmHg 77%
    04:00 +5°C° 0.1 mm 2 mps 738 mmHg 78%
    05:00 +5°C° 0.2 mm 2 mps 738 mmHg 79%
    06:00 +4°C° 0.2 mm 2 mps 738 mmHg 80%
    07:00 +4°C° 0.2 mm 2 mps 738 mmHg 81%
    08:00 +4°C° 0.3 mm 3 mps 738 mmHg 80%
    09:00 +4°C° 0.3 mm 4 mps 738 mmHg 78%
    10:00 +4°C° 0.3 mm 4 mps 738 mmHg 77%
    11:00 +3°C° 0.9 mm 5 mps 738 mmHg 78%
    12:00 +3°C° 0.9 mm 6 mps 737 mmHg 79%
    13:00 +3°C° 0.9 mm 6 mps 737 mmHg 80%
    14:00 +3°C° 1.6 mm 6 mps 737 mmHg 81%
    15:00 +2°C° 1.6 mm 7 mps 736 mmHg 83%
    16:00 +2°C° 1.6 mm 7 mps 736 mmHg 85%
    17:00 +2°C° 0.9 mm 7 mps 736 mmHg 86%
    18:00 +2°C° 0.9 mm 7 mps 736 mmHg 87%
    19:00 +2°C° 0.9 mm 7 mps 736 mmHg 88%
    20:00 +2°C° 0.7 mm 7 mps 735 mmHg 89%
    21:00 +2°C° 0.7 mm 6 mps 735 mmHg 89%
    22:00 +2°C° 0.7 mm 6 mps 735 mmHg 90%
    23:00 +3°C° 2.1 mm 6 mps 734 mmHg 91%

    29 October, Monday

    Time Temperature Precipitation Wind Pressure Humidity
    00:00 +3°C° 2.1 mm 6 mps 734 mmHg 91%
    01:00 +3°C° 2.1 mm 6 mps 733 mmHg 92%
    02:00 +3°C° 1.3 mm 6 mps 733 mmHg 92%
    03:00 +3°C° 1.3 mm 6 mps 732 mmHg 93%
    04:00 +3°C° 1.3 mm 6 mps 732 mmHg 93%
    05:00 +3°C° 0.6 mm 5 mps 732 mmHg 93%
    06:00 +5°C° 0.6 mm 5 mps 731 mmHg 93%
    07:00 +5°C° 0.6 mm 5 mps 731 mmHg 93%
    08:00 +5°C° 1.2 mm 5 mps 731 mmHg 93%
    09:00 +6°C° 1.2 mm 4 mps 731 mmHg 93%
    10:00 +6°C° 1.2 mm 4 mps 731 mmHg 93%
    11:00 +7°C° 1.2 mm 4 mps 730 mmHg 92%
    12:00 +7°C° 1.2 mm 4 mps 730 mmHg 92%
    13:00 +9°C° 1.2 mm 3 mps 730 mmHg 91%
    14:00 +9°C° 0.7 mm 3 mps 730 mmHg 92%
    15:00 +9°C° 0.7 mm 3 mps 730 mmHg 92%
    16:00 +10°C° 0.7 mm 3 mps 730 mmHg 92%
    17:00 +10°C° 0.2 mm 3 mps 730 mmHg 93%
    18:00 +10°C° 0.2 mm 3 mps 730 mmHg 93%
    19:00 +10°C° 0.2 mm 2 mps 730 mmHg 94%
    20:00 +10°C° 0 mm 2 mps 730 mmHg 94%
    21:00 +9°C° 0 mm 2 mps 730 mmHg 94%
    22:00 +9°C° 0 mm 2 mps 731 mmHg 94%
    23:00 +9°C° 0 mm 2 mps 730 mmHg 94%
    Show more